Caldwell, NJ

9:31 AM EDT on August 24, 2016 (GMT -0400)
Essex County

Weather History for KCDW - August, 2013

Change the Weather History Date:

Saturday, August 10, 2013

  Actual Average Record
Temperature  
Mean Temperature 73 °F -  
Max Temperature 82 °F 84 °F 99 °F (1949)
Min Temperature 64 °F 62 °F 46 °F (1964)
Cooling Degree Days 8    
Growing Degree Days 23 (Base 50)    
Moisture  
Dew Point 62 °F    
Average Humidity 69    
Maximum Humidity 97    
Minimum Humidity 44    
Precipitation  
Precipitation 0.00 in - - ()
Sea Level Pressure  
Sea Level Pressure 30.00 in    
Wind  
Wind Speed 2 mph (NW)    
Max Wind Speed 10 mph    
Max Gust Speed -    
Visibility 9 miles    
Events      
Averages and records for this station are not official NWS values.
T = Trace of Precipitation, MM = Missing Value Source: NWS Daily Summary

Daily Weather History Graph

Daily Weather History Graph

Search for Another Location

Airport or City:

Trip Planner

Search our weather history database for the weather conditions in past years. The results will help you decide how hot, cold, wet, or windy it might be!

Date:

Astronomy

Aug. 10, 2013 Rise Set
Actual Time 6:02 AM EDT 8:01 PM EDT
Civil Twilight 5:32 AM EDT 8:31 PM EDT
Nautical Twilight 4:55 AM EDT 9:08 PM EDT
Astronomical Twilight 4:16 AM EDT 9:47 PM EDT
Moon 9:48 AM EDT (8/10) 9:39 PM EDT (8/10)
Length of Visible Light 14h 59m
Length of Day
13h 59m
Waxing Crescent, 14% of the Moon is Illuminated
Aug 10
Waxing Crescent
Aug 14
First Quarter
Aug 20
Full
Aug 28
Last Quarter
Sep 5
New

Hourly Weather History & Observations

Time (EDT) Temp. Heat Index Dew Point Humidity Pressure Visibility Wind Dir Wind Speed Gust Speed Precip Events Conditions
12:53 AM 73.0 °F - 70.0 °F 90% 29.90 in 8.0 mi Calm Calm - N/A   Clear
1:53 AM 72.0 °F - 70.0 °F 93% 29.91 in 9.0 mi Calm Calm - N/A   Clear
2:53 AM 70.0 °F - 69.1 °F 97% 29.93 in 5.0 mi Calm Calm - N/A   Clear
3:53 AM 69.1 °F - 66.0 °F 90% 29.95 in 10.0 mi Calm Calm - N/A   Clear
4:53 AM 66.9 °F - 64.9 °F 93% 29.96 in 8.0 mi Calm Calm - N/A   Clear
5:53 AM 64.9 °F - 64.0 °F 97% 29.98 in 6.0 mi Calm Calm - N/A   Clear
6:53 AM 66.9 °F - 64.0 °F 90% 30.00 in 9.0 mi Calm Calm - N/A   Clear
7:53 AM 70.0 °F - 64.9 °F 84% 30.01 in 10.0 mi Calm Calm - N/A   Clear
8:53 AM 73.0 °F - 62.1 °F 68% 30.02 in 10.0 mi NW 4.6 mph - N/A   Clear
9:53 AM 75.0 °F - 59.0 °F 57% 30.02 in 10.0 mi NW 6.9 mph - N/A   Clear
10:53 AM 78.1 °F - 60.1 °F 54% 30.01 in 10.0 mi NW 4.6 mph - N/A   Clear
11:53 AM 77.0 °F - 59.0 °F 54% 30.02 in 10.0 mi WNW 6.9 mph - N/A   Clear
12:53 PM 79.0 °F - 59.0 °F 50% 30.02 in 10.0 mi WNW 9.2 mph - N/A   Clear
1:53 PM 80.1 °F 81.1 °F 61.0 °F 52% 30.01 in 10.0 mi West 10.4 mph - N/A   Partly Cloudy
2:53 PM 81.0 °F 81.6 °F 60.1 °F 49% 30.01 in 10.0 mi WNW 9.2 mph - N/A   Partly Cloudy
3:53 PM 81.0 °F 81.3 °F 59.0 °F 47% 30.00 in 10.0 mi NNW 9.2 mph - N/A   Scattered Clouds
4:53 PM 82.0 °F 82.0 °F 57.9 °F 44% 29.99 in 10.0 mi WNW 9.2 mph - N/A   Partly Cloudy
5:53 PM 81.0 °F 81.1 °F 57.9 °F 45% 30.00 in 10.0 mi NW 6.9 mph - N/A   Mostly Cloudy
6:53 PM 80.1 °F 80.6 °F 57.9 °F 47% 30.00 in 10.0 mi Variable 4.6 mph - N/A   Clear
7:53 PM 77.0 °F - 59.0 °F 54% 30.02 in 10.0 mi NW 3.5 mph - N/A   Mostly Cloudy
8:53 PM 72.0 °F - 59.0 °F 64% 30.04 in 10.0 mi Calm Calm - N/A   Clear
9:53 PM 70.0 °F - 60.1 °F 71% 30.06 in 10.0 mi Calm Calm - N/A   Clear
10:53 PM 66.9 °F - 60.1 °F 79% 30.07 in 10.0 mi Calm Calm - N/A   Clear
11:53 PM 66.0 °F - 60.1 °F 81% 30.09 in 10.0 mi Calm Calm - N/A   Clear